星链-2046 (STARLINK-2046 )

导读

STARLINK-2046是美国SpaceX星链星座的一员,于2021年1月20日发射。星链计划旨在搭建全球低轨卫星互联网网络,为地面偏远区域提供高速宽带服务。STARLINK-2046运行在近地轨道,和其他星链卫星共同组网,依靠星座互联能力支撑全球网络覆盖,帮助缩小数字鸿沟,是星链大规模组网阶段的重要组成卫星。

基本信息
目录编号:
47354
目录名称:
STARLINK-2046
国际标识:
2021-005F
轨道中心:
EARTH
卫星名称:
星链-2046
卫星全名:
星链-2046 (STARLINK-2046 )
卫星状态:
在轨 (已飞行2053 天)
发射日期:
2021-01-20 UTC
国别 :
美国 (US)
星等 :
--
轨道信息
数据来源 国际轨道数据
星历时间: 2026-09-03T19:03:46+0800
18小时前
查看轨道信息
半长轴: 6844.929km
偏心率: 0.0003107
轨道倾角: 53.158°
近地点辐角 41.229°
升交点赤经 276.602°
平近点角 318.895°
近地点: 464.665km
远地点: 468.919km
周期: 93.932分钟
每日圈数: 15.330254
详细信息
固有亮度:
5
最大亮度:
2.5
卫星平台:
Starlink V1.0
覆盖范围:
全球
运营商:
太空探索技术公司
运营商所在国:
美国
制造商(研发单位):
太空探索技术公司
制造商所在国:
美国
使用方式:
暂无
卫星简介
星链(Starlink)计划是由太空探索技术公司(SpaceX)提出的一个巨型低轨卫星互联网星座项目,计划在2019年至2024年间在太空搭建由约1.2万颗卫星组成的“星链”网络,其中1584颗将部署在地球上空550千米处的近地轨道,并从2020年开始工作。该卫星仍在工作。
2D轨道图
3D轨道图
轨道高度分析图
轨道倾角分析图
轨道综合分析图
查看轨道综合分析图
交会数据列表
事件ID 空间交会对象 最接近时刻(TCA) 交会距离 交会风险概率(CRP) 交会风险指数(CRI) 操作
CDM_260905-123504-735406-823021
2026-09-05T
12:35:34+0000
1.302 km
极远距离
1.048821E-5 中风险 0.55
CDM_260901-234504-735406-881923
2026-09-01T
23:45:07+0000
1.404 km
极远距离
8.313641E-6 低风险 0.53
CDM_260902-030004-735406-566121
2026-09-02T
03:00:10+0000
1.667 km
极远距离
2.580946E-6 低风险 0.43
CDM_260902-082204-735406-968322
2026-09-02T
08:22:54+0000
2.139 km
极远距离
2.417058E-6 低风险 0.43
CDM_260903-073504-735406-802322
2026-09-03T
07:35:04+0000
2.010 km
极远距离
2.302223E-6 低风险 0.42
CDM_260903-082204-735406-802322
2026-09-03T
08:22:01+0000
2.194 km
极远距离
1.875226E-6 低风险 0.4
CDM_260901-225804-735406-881922
2026-09-01T
22:58:08+0000
2.520 km
极远距离
1.722997E-6 低风险 0.4
CDM_260902-073104-735406-797622
2026-09-02T
07:31:14+0000
2.020 km
极远距离
1.691938E-6 低风险 0.4
CDM_260831-013204-735406-948221
2026-08-31T
01:32:06+0000
2.077 km
极远距离
1.584966E-6 低风险 0.39
CDM_260904-231504-735405-372021
2026-09-04T
23:15:21+0000
2.375 km
极远距离
1.549209E-6 低风险 0.39